Caldwell, NJ

2:52 PM EDT on October 15, 2019 (GMT -0400)
Essex County

Weather History for KCDW - May, 2019

Change the Weather History Date:

Wednesday, May 15, 2019

  Actual Average Record
Temperature  
Mean Temperature 57 °F -  
Max Temperature 73 °F 71 °F 90 °F (2018)
Min Temperature 42 °F 46 °F 36 °F (1971)
Degree Days  
Heating Degree Days 8    
Growing Degree Days 7 (Base 50)    
Moisture  
Dew Point 42 °F    
Average Humidity 60    
Maximum Humidity 96    
Minimum Humidity 31    
Precipitation  
Precipitation 0.00 in - - ()
Sea Level Pressure  
Sea Level Pressure 29.86 in    
Wind  
Wind Speed 4 mph (NW)    
Max Wind Speed 15 mph    
Max Gust Speed 22 mph    
Visibility 10 miles    
Events Rain    
Averages and records for this station are not official NWS values.
T = Trace of Precipitation, MM = Missing Value Source: NWS Daily Summary

Daily Weather History Graph

Daily Weather History Graph

Search for Another Location

Airport or City:

Astronomy

May. 15, 2019 Rise Set
Actual Time 5:39 AM EDT 8:07 PM EDT
Civil Twilight 5:08 AM EDT 8:38 PM EDT
Nautical Twilight 4:30 AM EDT 9:17 PM EDT
Astronomical Twilight 3:46 AM EDT 10:01 PM EDT
Moon 4:33 PM EDT 4:06 AM EDT
Length of Visible Light 15h 30m
Length of Day
14h 27m
Waxing Gibbous, 87% of the Moon is Illuminated
May 15
Waxing Gibbous
May 18
Full
May 26
Last Quarter
Jun 3
New
Jun 10
First Quarter

Hourly Weather History & Observations

Time (EDT) Temp. Windchill Dew Point Humidity Pressure Visibility Wind Dir Wind Speed Gust Speed Precip Events Conditions
12:53 AM 46.9 °F - 44.1 °F 90% 29.87 in 10.0 mi Calm Calm - 0.00 in Rain Light Rain
1:53 AM 46.0 °F - 45.0 °F 96% 29.87 in 10.0 mi Calm Calm - 0.00 in   Overcast
2:53 AM 46.0 °F - 43.0 °F 89% 29.87 in 10.0 mi Calm Calm - N/A   Overcast
3:53 AM 44.1 °F 42.5 °F 43.0 °F 96% 29.88 in 10.0 mi West 3.5 mph - N/A   Mostly Cloudy
4:53 AM 44.1 °F - 42.1 °F 93% 29.88 in 10.0 mi Calm Calm - N/A   Scattered Clouds
5:53 AM 42.1 °F - 41.0 °F 96% 29.89 in 10.0 mi Calm Calm - N/A   Clear
6:53 AM 46.0 °F 43.9 °F 42.1 °F 86% 29.90 in 10.0 mi South 4.6 mph - N/A   Clear
7:53 AM 50.0 °F - 39.9 °F 68% 29.91 in 10.0 mi NNW 8.1 mph - N/A   Clear
8:53 AM 53.1 °F - 39.0 °F 59% 29.91 in 10.0 mi NNW 9.2 mph - N/A   Clear
9:53 AM 55.9 °F - 39.0 °F 53% 29.91 in 10.0 mi NW 10.4 mph - N/A   Partly Cloudy
10:53 AM 57.9 °F - 39.9 °F 51% 29.90 in 10.0 mi Variable 6.9 mph - N/A   Mostly Cloudy
11:53 AM 63.0 °F - 39.9 °F 43% 29.88 in 10.0 mi Variable 6.9 mph 16.1 mph N/A   Scattered Clouds
12:53 PM 64.9 °F - 39.9 °F 40% 29.86 in 10.0 mi NW 9.2 mph 18.4 mph N/A   Partly Cloudy
1:53 PM 68.0 °F - 39.9 °F 36% 29.84 in 10.0 mi NW 9.2 mph 18.4 mph N/A   Clear
2:53 PM 70.0 °F - 39.0 °F 32% 29.82 in 10.0 mi WNW 15.0 mph 21.9 mph N/A   Scattered Clouds
3:53 PM 69.1 °F - 41.0 °F 36% 29.82 in 10.0 mi NW 8.1 mph - N/A   Overcast
4:53 PM 70.0 °F - 42.1 °F 36% 29.81 in 10.0 mi WNW 5.8 mph - N/A   Scattered Clouds
5:53 PM 72.0 °F - 39.9 °F 31% 29.81 in 10.0 mi NW 10.4 mph - N/A   Mostly Cloudy
6:53 PM 71.1 °F - 39.9 °F 32% 29.81 in 10.0 mi WNW 8.1 mph - N/A   Mostly Cloudy
7:53 PM 66.9 °F - 43.0 °F 42% 29.83 in 10.0 mi West 6.9 mph - N/A   Partly Cloudy
8:53 PM 64.0 °F - 45.0 °F 50% 29.85 in 10.0 mi Calm Calm - N/A   Mostly Cloudy
9:53 PM 63.0 °F - 45.0 °F 52% 29.86 in 10.0 mi NW 3.5 mph - N/A   Scattered Clouds
10:53 PM 60.1 °F - 46.0 °F 60% 29.85 in 10.0 mi SSW 3.5 mph - N/A   Partly Cloudy
11:53 PM 59.0 °F - 46.9 °F 64% 29.87 in 10.0 mi North 4.6 mph - N/A   Overcast